Location: Clot
(41.4167°N, 2.1833°E)
Time: 22:11:35
(UTC+00:00)

Daily predictions for brighter satellites

Satellite Brightness Start Highest point End
(mag) Time Altitude Azimuth Time Altitude Azimuth Time Altitude Azimuth
Cosmos 1844 4.3 18:03:33 10° SSE 18:08:35 33° ESE 18:13:35 10° NE
ISS -1.8 18:06:56 10° W 18:09:49 26° NNW 18:12:44 10° NE
NOSS 3-4 (A) 4.4 18:05:34 10° SSE 18:09:57 22° ESE 18:14:29 10° ENE
NOSS 3-4 (C) 4.4 18:05:42 10° SSE 18:10:04 22° ESE 18:14:34 10° ENE
SL-24 R/B 4.4 18:12:22 10° S 18:16:46 79° WSW 18:21:35 10° NNW
Cosmos 1300 Rocket 3.9 18:13:45 10° SSE 18:17:55 44° E 18:22:09 10° NNE
Sich 1 Rocket 3.6 18:17:43 10° S 18:22:13 83° E 18:26:47 10° N
Cosmos 2298 Rocket 4.0 18:19:00 10° S 18:24:16 67° ESE 18:29:34 10° NNE
Cosmos 1943 4.5 18:19:18 10° NW 18:24:40 45° WSW 18:30:02 10° S
CENTAUR R/B 3.6 18:18:43 10° NNW 18:26:23 46° NE 18:34:44 10° ESE
Iridium 4 Rocket 4.3 18:21:32 10° SSW 18:26:34 61° W 18:32:06 10° N
CSL-04 Debris 4.3 18:23:39 10° SSE 18:28:53 55° ENE 18:34:09 10° N
Helios 1A Rocket 3.8 18:26:42 10° S 18:30:42 53° W 18:34:47 10° NNW
CSL-04 Rocket 3.8 18:25:33 10° SSE 18:30:51 55° ENE 18:36:13 10° N
ATLAS 2AS CENTAUR R/B 3.5 18:25:08 10° S 18:32:09 36° ESE 18:39:12 10° NE
Okean 2 Rocket 3.1 18:27:59 10° S 18:32:27 67° E 18:36:53 10° NNE
YAOGAN 1 2.5 18:29:07 10° SSE 18:33:26 83° E 18:37:47 10° N
Cosmos 1025 Rocket 3.2 18:31:38 10° N 18:35:57 54° E 18:40:16 10° SSE
ATLAS 3B R/B 4.1 18:33:01 10° NNW 18:38:03 21° NNE 18:42:35 12° ENE
Cosmos 1513 Rocket 4.4 18:33:38 10° S 18:39:52 80° E 18:46:03 10° N
Abrixas rocket 3.3 18:38:09 10° NW 18:40:38 26° NNE 18:42:11 16° ENE
CREW DRAGON DEMO-1 DEB 4.3 18:40:15 10° NW 18:42:49 24° NNE 18:44:16 17° ENE
Cosmos 1125 Rocket 3.5 18:39:41 10° S 18:44:54 62° ESE 18:50:10 10° NNE
Cosmos 1536 Rocket 3.7 18:41:22 10° N 18:45:45 51° E 18:50:06 10° SSE
SJ-6B 4.2 18:48:31 18° ENE 18:48:56 19° ENE 18:51:37 10° NNE
CZ-4 R/B 2.5 18:46:59 10° S 18:51:04 50° W 18:55:09 10° NNW
Cosmos 2150 Rocket 4.3 18:46:27 10° SSW 18:51:50 77° WNW 18:57:19 10° NNE
SJ-11-01 4.2 18:47:23 10° SSE 18:52:05 77° ENE 18:56:47 10° N
CZ-2C R/B 3.2 18:47:45 10° SSE 18:53:05 86° WSW 18:58:44 10° NNW
Cosmos 1464 Rocket 4.0 18:47:06 10° S 18:53:14 84° W 18:59:27 10° N
Okean-O 4.0 18:50:45 10° S 18:54:56 41° W 18:59:08 10° NNW
Cosmos 2285 Rocket 4.0 18:49:21 10° S 18:55:33 62° ESE 19:01:48 10° NNE
USA 238 DEB 3.9 18:48:34 10° NNW 18:55:52 82° NE 19:03:15 11° SE
USA 238 3.9 18:48:40 10° NNW 18:55:58 81° NE 19:03:18 11° SE
Cosmos 1674 3.0 18:54:24 10° N 18:58:05 43° ENE 19:00:17 21° SE
Cosmos 1092 Rocket 4.3 18:53:21 10° N 18:59:10 41° ENE 19:04:17 13° SE
MOS 1 Rocket 3.0 19:00:24 10° NNE 19:04:46 86° ESE 19:09:02 10° SSW
TSX-5 3.9 19:03:20 10° S 19:06:52 50° ESE 19:11:19 10° NE
ARGOS 3.1 19:03:22 10° SSE 19:08:42 76° ENE 19:14:05 10° N
Cosmos 1048 Rocket 4.3 19:08:12 10° NNW 19:13:33 73° WSW 19:18:52 10° S
Cosmos 1733 3.4 19:13:48 40° ESE 19:14:23 43° E 19:18:02 10° NNE
Cosmos 2151 Rocket 4.2 19:10:44 10° SSW 19:15:08 58° W 19:19:35 10° N
CZ-2C R/B 2.8 19:09:41 10° NNE 19:15:09 51° E 19:20:35 10° S
HJ-1C 4.3 19:12:37 10° S 19:15:48 47° W 19:19:00 10° NNW
IRIS 4.0 19:13:53 10° WSW 19:17:51 78° S 19:18:07 69° ESE
Lacrosse 5 rocket 4.0 19:17:04 10° N 19:18:31 11° N 19:20:00 10° NNE
NOSS 3-2 (A) 4.4 19:12:42 10° NW 19:20:22 71° WSW 19:28:54 10° SSE
Cosmos 2082 Rocket 3.9 19:17:24 10° N 19:20:52 16° NE 19:21:17 16° NE
Shenzhou-11 Module 3.6 19:19:38 10° WSW 19:20:33 22° WSW 19:20:33 22° WSW
BREEZE-M DEB (TANK) 3.2 19:19:30 10° WNW 19:22:51 83° SSW 19:27:36 26° SE
DMSP B5D2-2 4.1 19:19:47 10° NNE 19:24:57 53° E 19:30:05 10° S
Meteor 1-15 Rocket 4.3 19:20:06 10° SSW 19:25:44 79° WNW 19:31:30 10° N
Cosmos 1805 3.2 19:22:21 10° S 19:26:16 88° WNW 19:30:12 10° N
Cosmos 494 Rocket 4.0 19:21:03 10° NNW 19:26:21 86° WSW 19:29:53 21° SSE
OBJECT-B 3.2 19:28:48 13° NNE 19:28:48 13° NNE 19:29:21 10° NNE
Ariane Rocket 2.9 19:28:06 30° SSE 19:30:35 71° ENE 19:35:40 10° N
SL-08 RB Rocket 3.6 19:27:52 24° SSE 19:30:40 90° NNE 19:35:13 10° NNW
Milstar 3 Cent rocket 3.6 19:25:45 10° SW 19:31:21 23° S 19:32:39 21° SSE
H-2A R/B 2.9 19:27:17 10° S 19:32:05 48° W 19:37:02 10° NNW
USA 234 3.9 19:38:14 32° SE 19:38:14 32° SE 19:43:03 10° S
Cosmos 1269 Rocket 3.9 19:32:59 10° NNW 19:38:18 67° ENE 19:39:33 50° SE
KORONAS-FOTON 4.4 19:35:45 10° NNW 19:39:37 56° W 19:41:31 27° SSW
MetOp-A 4.0 19:40:20 43° SE 19:42:06 73° ENE 19:47:27 10° N
USA 186 2.4 19:42:34 55° WNW 19:42:34 55° WNW 19:45:30 10° NNW
Cosmos 1626 3.2 19:39:43 10° N 19:42:02 35° NNE 19:42:02 35° NNE
Cosmos 1844 Rocket 4.4 19:40:02 10° WSW 19:45:00 33° WNW 19:50:02 10° N
CZ-2C R/B 3.7 19:45:12 10° SSW 19:45:20 10° SSW 19:45:20 10° SSW
COSMOS 2406 3.3 19:41:53 10° NNW 19:47:27 54° ENE 19:47:56 52° E
ISS -1.2 19:45:32 10° NW 19:47:31 14° N 19:47:46 14° N
Cosmos 2278 Rocket 3.2 19:43:23 10° S 19:51:32 29° NE 19:54:23 10° NNE
IRS-1A Rocket 4.4 19:47:47 25° S 19:51:22 79° WSW 19:57:14 10° NNW
Meteor 1-22 Rocket 4.2 19:47:41 10° S 19:53:34 88° E 19:59:40 10° N
Lacrosse 4 Rocket 3.5 19:51:33 10° N 19:52:52 16° NNE 19:52:52 16° NNE
Meteor 2-5 Rocket 3.9 19:52:15 10° NNW 19:57:57 73° W 20:00:46 31° S
NOSS 3-2 (C) 4.4 19:50:59 10° NW 19:58:38 64° WSW 20:03:38 27° S
Okean 1 Rocket 4.3 19:54:37 10° SSW 19:58:53 42° WNW 20:03:10 10° N
NOSS 3-4 (A) 3.8 19:54:23 10° SW 20:00:12 60° NW 20:06:25 10° NNE
Meteor 1-24 Rocket 3.6 19:54:39 10° N 20:00:17 90° NNW 20:01:38 55° S
NOSS 3-4 (C) 3.8 19:54:29 10° SW 20:00:18 61° NW 20:06:31 10° NNE
Resurs 01 Rocket 3.2 20:03:26 26° NNE 20:03:26 26° NNE 20:05:37 10° N
SL-14 R/B 4.4 19:59:24 10° N 20:01:55 38° NNW 20:01:55 38° NNW
Cosmos 1833 Rocket 2.9 20:06:56 10° NNW 20:11:54 58° NNE 20:11:54 58° NNE
CENTAUR R/B 3.7 20:09:24 10° NW 20:17:26 54° WSW 20:22:00 29° S
SPOT 3 Rocket 3.8 20:20:50 62° NNW 20:20:50 62° NNW 20:25:08 10° NNW
ATLAS 2AS CENTAUR R/B 3.6 20:15:05 10° SW 20:22:53 57° NW 20:30:40 10° NNE
ATLAS 3B R/B 2.6 20:22:57 10° NNW 20:29:50 76° NE 20:29:50 76° NE
Cosmos 1655 Rocket 4.4 20:32:59 10° N 20:37:50 55° N 20:37:50 55° N
Lacrosse 5 rocket 4.2 20:55:16 10° NNW 20:56:20 15° NNW 20:56:20 15° NNW
Cosmos 2082 Rocket 3.6 21:00:03 10° NNW 21:03:08 34° NNW 21:03:08 34° NNW
Cosmos 2278 Rocket 4.2 21:33:01 23° WNW 21:33:18 24° NW 21:37:48 10° N
